TRITON-1

Last updated on Mon Sep 15 2025 00:03:48 GMT+0000 (Coordinated Universal Time)

1 39427U 13066M 25257.26602328 .00002642 00000+0 33384-3 0 9998 2 39427 97.8283 168.5835 0095117 53.1631 307.8257 14.79548761633255
UTC large
Height (km)
Speed (km/s)
/
Latitude / Longitude
Inclination (degrees)
Orbital Period (minutes)
Azimuth
Elevation
Range (km)
Doppler Factor

Next 0 passes for location: London (51.5072 / 0.1276)

Sorry there are no passes over London.